Location: Dötzum
(52.0808°N, 9.8063°E)
Time: 04:51:15
(UTC+00:00)

ADEOS II - Pass Details

Date: 27 May 2022
Orbit: 798 x 801 km, 98.6° (Epoch: 24 June)

Event Time Altitude Azimuth Distance (km) Brightness Sun altitude
Rises 01:09:05 0° 18° (NNE) 3,320 7.2 -12.7°
Reaches altitude 10° 01:11:31 10° 24° (NNE) 2,385 6.1 -12.6°
Maximum altitude 01:16:37 49° 99° (E) 1,025 2.8 -12.2°
Drops below altitude 10° 01:21:41 10° 175° (S) 2,368 4.0 -11.8°
Enters shadow 01:21:42 10° 175° (S) 2,370 4.0 -11.8°
